[[[{"header":{"parameterUnit":"kt","parameterCategory":2,"dx":1,"dy":1,"la1":30.253999710083008,"la2":30.299108505249023,"lo1":-89.0895004272461,"lo2":-89.04439544677734,"nx":28,"ny":28,"refTime":"2022-10-02T21:00:00:Z","depth":"0","parameterNumber":2,"parameterNumberName":"U-component_of_CURRENTS"},"data":[0.68,0.6605,0.656,0.6131,0.6009,0.5639,0.5529,0.5457,0.5624,0.5846,0.6186,0.665,0.7077,0.722,0.681,0.6636,0.6009,0.5812,0.5775,0.6531,0.663,0.6724,0.639,0.5779,0.5778,0.429,0.4278,0.4269,0.6981,0.6947,0.6842,0.6677,0.6475,0.6594,0.6494,0.6365,0.6283,0.6648,0.6842,0.7401,0.762,0.7919,0.7991,0.7649,0.7349,0.7389,0.6844,0.6728,0.7906,0.7599,0.7235,0.7235,0.7235,0.7236,0.7236,0.7237,0.7347,0.7261,0.723,0.7127,0.7071,0.6954,0.683,0.6927,0.6944,0.7081,0.7429,0.7713,0.8202,0.8873,0.8881,0.87,0.8827,0.8537,0.8502,0.8274,0.7773,0.8857,0.9067,0.9072,0.9075,0.9079,0.9082,0,0.7566,0.7567,0.7564,0.7487,0.7461,0.7403,0.744,0.7434,0.7666,0.7795,0.7914,0.812,0.8617,0.8797,0.9307,0.9478,0.915,0.9603,0.9233,0.8435,0.7885,0.7613,0.8892,0.9261,0.9267,0.9271,0.9275,0.9277,0.7648,0.7727,0.7755,0.7715,0.7721,0.7811,0.7797,0.8006,0.8022,0.8314,0.8312,0.8642,0.8763,0.9247,0.946,0.9865,0.9543,0.9725,0.9553,0.899,0.8859,0.8528,0.8285,0.9339,0.9331,0.9325,0.9319,0,0.7603,0.7698,0.7794,0.7903,0.7926,0.7997,0.8032,0.8107,0.8362,0.8443,0.8546,0.8773,0.9003,0.923,0.9611,0.9636,0.9609,0.9961,0.9439,0.9381,0.8969,0.8837,0.8819,0.8559,1.0161,1.016,1.0158,0,0.7485,0.7603,0.765,0.7732,0.7855,0.7979,0.8129,0.8228,0.841,0.8444,0.8722,0.8776,0.9018,0.918,0.9313,0.9456,0.9667,0.9519,0.9531,0.9172,0.9112,0.8815,0.8661,0.9864,0.986,0.9857,0.9854,0,0.7269,0.7392,0.7552,0.7597,0.771,0.7811,0.7887,0.8034,0.8065,0.8421,0.8486,0.8781,0.8833,0.9127,0.9068,0.8988,0.9429,0.9361,0.9375,0.9356,0.9158,0.9099,0.9117,0.9849,0.9848,0.9846,0.9845,0,0.7079,0.7143,0.7315,0.7469,0.7517,0.7588,0.7812,0.788,0.8066,0.8112,0.8284,0.8318,0.8518,0.8369,0.8704,0.8504,0.8668,0.8712,0.8733,0.8554,0.8363,0.8438,0.871,0.8287,0.8825,0.8816,0.8809,0,0.6898,0.7036,0.7039,0.7203,0.7312,0.7315,0.7409,0.7488,0.753,0.7709,0.7755,0.7907,0.7724,0.7805,0.7958,0.8031,0.8281,0.7963,0.8439,0.8453,0.8266,0.8577,0.8213,0.8593,0.8703,0.8714,0.8722,0,0.6779,0.6846,0.6862,0.6948,0.6997,0.7055,0.7124,0.7246,0.7375,0.7333,0.7567,0.7544,0.7583,0.7615,0.7591,0.7742,0.8091,0.768,0.7691,0.7886,0.8669,0.845,0.85,0.8137,0.815,0.8161,0.8638,0,0.6704,0.6751,0.6782,0.686,0.6891,0.6958,0.698,0.7001,0.6999,0.7031,0.7171,0.7135,0.7259,0.7216,0.7148,0.7449,0.7428,0.7395,0.7365,0.7547,0.771,0.7777,0.6956,0.6954,0.6952,0.695,0,0,0.6607,0.6685,0.6667,0.6719,0.6788,0.6759,0.6846,0.6832,0.6843,0.691,0.6813,0.694,0.6896,0.7083,0.7087,0.703,0.7159,0.7017,0.7389,0.7437,0.7482,0.7652,0.7718,0.6946,0.6946,0.6945,0.6944,0,0.6616,0.661,0.6656,0.6677,0.6724,0.6739,0.6757,0.6776,0.6786,0.679,0.6811,0.6861,0.6803,0.688,0.6899,0.6984,0.7057,0.6951,0.7084,0.736,0.741,0.7456,0.7632,0.7693,0.6939,0.694,0.694,0,0.6587,0.6622,0.664,0.667,0.6686,0.6733,0.6713,0.6737,0.6785,0.6712,0.6746,0.6736,0.6733,0.6762,0.6772,0.6729,0.6977,0.6779,0.6789,0.6863,0.715,0.7204,0.7253,0.6647,0.6646,0.6645,0,0,0.6593,0.662,0.6661,0.6678,0.6694,0.671,0.672,0.6725,0.6726,0.6715,0.6697,0.6692,0.6719,0.6706,0.6704,0.6699,0.6822,0.6747,0.6761,0.6772,0.6851,0.7138,0.7189,0.6643,0.6643,0.6643,0,0,0.6599,0.6662,0.6667,0.6688,0.6708,0.6725,0.6732,0.6738,0.671,0.6712,0.6686,0.6678,0.6712,0.6665,0.6638,0.6706,0.6645,0.6648,0.6739,0.6755,0.6768,0.6872,0.6609,0,0,0,0,0,0.6655,0.6662,0.6666,0.6678,0.6699,0.6723,0.672,0.6729,0.6739,0.6724,0.6709,0.669,0.6658,0.6631,0.662,0.6689,0.6613,0.6618,0.6623,0.6741,0.6759,0.6774,0,0,0,0,0,0,0.666,0.6671,0.6668,0.6691,0.6699,0.672,0.6722,0.672,0.674,0.6739,0.6693,0.6687,0.6657,0.6635,0.6625,0.6693,0.6612,0.6615,0.662,0.6624,0.6747,0.6762,0.6774,0,0,0,0,0,0.6664,0.6673,0.6711,0.6689,0.6695,0.6719,0.6721,0.672,0.6711,0.6697,0.6691,0.6729,0.6656,0.6648,0.6629,0.6699,0.6618,0.6614,0.6618,0.6622,0.6625,0.6754,0,0,0,0,0,0,0.6667,0.6627,0.6712,0.6714,0.6706,0.6716,0.6717,0.672,0.6665,0.6664,0.673,0.673,0.6655,0.6649,0.6643,0.6706,0.6623,0.662,0.6617,0.6621,0.6624,0.6626,0,0,0,0,0,0,0.6625,0.6628,0.6711,0.6731,0.6735,0.6713,0.6715,0.6677,0.6662,0.6694,0.6697,0.6731,0.668,0.665,0.6645,0.6583,0.6627,0.6624,0.6621,0.662,0.6623,0.6625,0,0,0,0,0,0,0.6626,0.6628,0.6729,0.6731,0.6734,0.6741,0.6677,0.6691,0.6703,0.6693,0.6707,0.6708,0.6682,0.6675,0.6646,0.6587,0.6584,0.6627,0.6625,0.6623,0.6622,0,0,0,0,0,0,0,0.6627,0.6612,0.6727,0.6731,0.6733,0.6741,0.6739,0.6737,0.6704,0.6705,0.6706,0.6708,0.6646,0.6642,0.6638,0.659,0,0,0.6627,0.6626,0,0,0,0,0,0,0,0,0.6611,0.6612,0.6727,0.673,0.6732,0.6741,0.6739,0.6737,0.6704,0.6705,0.6706,0.6707,0.6645,0.6642,0.6639,0,0,0,0,0,0,0,0,0,0,0,0,0,0,0,0.6728,0.6729,0,0.6741,0.6739,0.6738,0.6704,0.6705,0.6706,0.6707,0.6644,0.6641,0.6639,0,0,0,0,0,0,0,0,0,0,0,0,0,0,0,0,0,0,0,0,0,0,0,0,0,0,0,0,0,0,0,0,0,0,0,0,0,0,0,0,0,0,0,0,0,0,0,0,0,0,0,0,0,0,0,0,0,0,0,0,0,0,0,0,0,0,0,0,0]}],[{"header":{"parameterUnit":"kt","parameterCategory":2,"dx":1,"dy":1,"la1":30.253999710083008,"la2":30.299108505249023,"lo1":-89.0895004272461,"lo2":-89.04439544677734,"nx":28,"ny":28,"refTime":"2022-10-02T21:00:00:Z","depth":"0","parameterNumber":3,"parameterNumberName":"V-component_of_CURRENTS"},"data":[0.2175,0.237,0.2534,0.3008,0.3258,0.3656,0.3917,0.4256,0.4635,0.511,0.543,0.5654,0.5099,0.2354,0.0429,-0.0016,-0.0607,-0.0653,-0.0953,-0.0389,-0.0323,-0.026,-0.0504,-0.0908,-0.0911,-0.1792,-0.1802,-0.1809,0.2175,0.2319,0.2564,0.287,0.3173,0.3315,0.3773,0.4005,0.4406,0.4836,0.5071,0.508,0.4173,0.324,0.1796,0.0962,0.0653,0.0486,0.0273,0.0172,0.1103,0.091,0.0799,0.08,0.08,0.0801,0.0801,0.0801,0.214,0.2256,0.2407,0.2675,0.2924,0.3277,0.3525,0.3822,0.4209,0.461,0.466,0.4884,0.4303,0.3504,0.2874,0.1746,0.1796,0.1375,0.1181,0.1101,0.075,0.1687,0.1848,0.1848,0.1848,0.1848,0.1848,0,0.2052,0.2105,0.2236,0.25,0.2713,0.2976,0.3268,0.3507,0.3762,0.4033,0.431,0.4395,0.4072,0.3654,0.3068,0.2686,0.1857,0.2142,0.1702,0.1155,0.0939,0.071,0.1694,0.2004,0.2005,0.2006,0.2006,0.2007,0.1798,0.1963,0.215,0.2269,0.2347,0.263,0.2816,0.3007,0.3232,0.3568,0.3761,0.3803,0.3819,0.3485,0.2904,0.254,0.2062,0.2186,0.1877,0.1393,0.1111,0.0952,0.078,0.2017,0.2016,0.2015,0.2014,0,0.1625,0.1658,0.1903,0.2057,0.2135,0.2354,0.259,0.2818,0.2982,0.3309,0.3407,0.3379,0.3298,0.2975,0.2787,0.2404,0.2008,0.2112,0.2078,0.2025,0.1347,0.1114,0.1121,0.0933,0.2046,0.2045,0.2043,0,0.131,0.1494,0.1543,0.1685,0.1973,0.198,0.2311,0.237,0.2572,0.2811,0.2709,0.2887,0.2567,0.2521,0.2223,0.2004,0.2174,0.1674,0.1638,0.1597,0.1573,0.1226,0.0984,0.1847,0.1844,0.1842,0.1839,0,0.1043,0.1151,0.1362,0.1401,0.1518,0.1651,0.1727,0.1831,0.197,0.2178,0.2344,0.2331,0.2392,0.2261,0.1921,0.1788,0.1924,0.1738,0.154,0.1529,0.1567,0.1544,0.1422,0.1836,0.1835,0.1834,0.1833,0,0.075,0.0836,0.1031,0.1213,0.1263,0.1328,0.1559,0.1597,0.1708,0.1745,0.1807,0.1762,0.1789,0.1518,0.15,0.1389,0.1295,0.1203,0.1214,0.107,0.0881,0.1171,0.1393,0.0953,0.1256,0.1251,0.1246,0,0.0568,0.0715,0.0663,0.0835,0.0952,0.089,0.0952,0.0988,0.1003,0.1176,0.1087,0.1213,0.0893,0.0983,0.094,0.0877,0.0945,0.0744,0.0958,0.0967,0.0828,0.1024,0.1004,0.1312,0.118,0.1187,0.1192,0,0.044,0.0471,0.0487,0.0589,0.0543,0.0617,0.0603,0.0687,0.0827,0.0713,0.0937,0.0752,0.0769,0.0746,0.0643,0.0663,0.0829,0.055,0.0552,0.0719,0.1115,0.095,0.098,0.0761,0.0768,0.0774,0.1139,0,0.0313,0.0367,0.0397,0.042,0.0436,0.0492,0.0439,0.0458,0.0423,0.0422,0.0497,0.0391,0.0449,0.0351,0.0246,0.0384,0.0384,0.0289,0.0274,0.039,0.0525,0.0567,0.004,0.0038,0.0037,0.0035,0,0,0.0214,0.0287,0.0249,0.0285,0.0323,0.0243,0.0313,0.027,0.0243,0.0305,0.0201,0.0215,0.0108,0.0188,0.0162,0.0096,0.0172,0.0119,0.0293,0.0321,0.0348,0.0485,0.0527,0.0032,0.0031,0.0031,0.003,0,0.0183,0.0189,0.0233,0.0236,0.0237,0.0216,0.0225,0.0205,0.0195,0.0189,0.0122,0.0117,0.0041,0.0032,0.0007,0.0066,0.0078,0.0014,0.017,0.0272,0.0303,0.033,0.0471,0.051,0.0026,0.0026,0.0026,0,0.0119,0.0122,0.0137,0.0155,0.0149,0.0167,0.0116,0.0129,0.0137,0.0049,0.0049,-0.0003,-0.0065,-0.007,-0.0079,-0.01,0.0031,-0.0095,-0.0087,-0.0002,0.0105,0.0138,0.0168,-0.0202,-0.0203,-0.0203,0,0,0.0094,0.0122,0.011,0.0144,0.0149,0.0119,0.0121,0.0097,0.007,0.0059,0.0012,-0.0037,-0.0073,-0.0089,-0.0127,-0.0121,-0.0052,-0.0119,-0.0109,-0.0099,-0.0011,0.0098,0.0128,-0.0205,-0.0205,-0.0205,0,0,0.0072,0.0068,0.0054,0.0096,0.0094,0.0064,0.0083,0.0055,0.0035,0.0021,-0.0052,-0.0067,-0.0081,-0.0119,-0.0129,-0.0142,-0.0192,-0.019,-0.0108,-0.0095,-0.0085,0.0032,-0.0206,0,0,0,0,0,0.0028,0.0071,0.006,0.0063,0.0065,0.0076,0.0074,0.004,0.0008,0.0028,-0.0022,-0.0075,-0.014,-0.015,-0.0161,-0.0145,-0.0223,-0.022,-0.0217,-0.0111,-0.0097,-0.0085,0,0,0,0,0,0,0.0029,0.0033,0.0058,0.0033,0.0033,0.0074,0.0013,0.0005,0.0005,-0.0002,-0.0063,-0.0077,-0.0129,-0.015,-0.0158,-0.0141,-0.0203,-0.0222,-0.0219,-0.0216,-0.0106,-0.0095,-0.0085,0,0,0,0,0,0.0029,0.0033,0.0049,0.0031,0.0031,-0.0004,0.0012,0.0004,0.0004,-0.0065,-0.0078,-0.0021,-0.0126,-0.0138,-0.0155,-0.0136,-0.0198,-0.0201,-0.022,-0.0218,-0.0216,-0.01,0,0,0,0,0,0,0.0029,0.0022,0.0047,0.0045,0.0015,-0.0007,-0.001,0.0004,-0.0061,-0.0072,-0.0028,-0.0033,-0.0124,-0.0134,-0.0143,-0.013,-0.0193,-0.0196,-0.0198,-0.0218,-0.0216,-0.0215,0,0,0,0,0,0,0.0019,0.0021,0.0046,0.0028,0.0023,-0.001,-0.0012,-0.0037,-0.0063,-0.0023,-0.0027,-0.003,-0.0129,-0.0131,-0.0138,-0.0174,-0.019,-0.0193,-0.0195,-0.0196,-0.0217,-0.0215,0,0,0,0,0,0,0.0019,0.002,0.0028,0.0025,0.002,-0.0007,-0.0035,-0.0042,-0.0043,-0.002,-0.0048,-0.005,-0.0126,-0.0133,-0.0134,-0.0166,-0.0172,-0.019,-0.0192,-0.0193,-0.0194,0,0,0,0,0,0,0,0.0018,0.0025,0.0061,0.0022,0.0018,0.0026,0.0025,0.0024,-0.0043,-0.0045,-0.0047,-0.0049,-0.0173,-0.0177,-0.018,-0.016,0,0,-0.019,-0.0191,0,0,0,0,0,0,0,0,0.0023,0.0024,0.0061,0.006,0.006,0.0025,0.0025,0.0024,-0.0044,-0.0045,-0.0047,-0.0048,-0.0174,-0.0177,-0.0179,0,0,0,0,0,0,0,0,0,0,0,0,0,0,0,0.0061,0.006,0,0.0025,0.0025,0.0024,-0.0044,-0.0045,-0.0047,-0.0048,-0.0175,-0.0177,-0.0179,0,0,0,0,0,0,0,0,0,0,0,0,0,0,0,0,0,0,0,0,0,0,0,0,0,0,0,0,0,0,0,0,0,0,0,0,0,0,0,0,0,0,0,0,0,0,0,0,0,0,0,0,0,0,0,0,0,0,0,0,0,0,0,0,0,0,0,0,0]}]],[[{"header":{"parameterUnit":"kt","parameterCategory":2,"dx":1,"dy":1,"la1":30.253999710083008,"la2":30.299108505249023,"lo1":-89.0895004272461,"lo2":-89.04439544677734,"nx":28,"ny":28,"refTime":"2022-10-02T21:00:00:Z","depth":"2","parameterNumber":2,"parameterNumberName":"U-component_of_CURRENTS"},"data":[0.4597,0.4583,0.4606,0.4712,0.4964,0.4926,0.4882,0.4746,0.4538,0.4178,0.3995,0.413,0.4303,0.3601,0.352,0.3266,0.3619,0.3132,0.4557,0.4549,0.4636,0.4888,0.4574,0,0,0,0,0,0.4554,0.4635,0.4707,0.5013,0.4984,0.5273,0.5211,0.5116,0.5151,0.5143,0.5136,0.4552,0.4419,0.4517,0.4184,0.415,0.4103,0.4015,0.392,0.4026,0.412,0.384,0.3084,0.3079,0.3074,0.3069,0,0,0.467,0.4705,0.4832,0.5045,0.5165,0.5259,0.5297,0.537,0.5526,0.5686,0.5835,0.5814,0.5825,0.5503,0.5321,0.5232,0.562,0.536,0.5394,0.5442,0.5231,0.4995,0.4842,0.4849,0.4855,0.4861,0.4866,0,0.4699,0.481,0.4891,0.5136,0.529,0.5409,0.5597,0.5628,0.5956,0.6172,0.6349,0.6445,0.662,0.6289,0.63,0.6149,0.6276,0.6054,0.6973,0.5648,0.5411,0.5361,0.538,0.5382,0.5393,0.54,0.5406,0.541,0.4779,0.4821,0.5114,0.5196,0.5309,0.5529,0.5596,0.5888,0.6009,0.6482,0.6579,0.6902,0.6945,0.7107,0.694,0.6854,0.7023,0.6303,0.6059,0.665,0.6605,0.6579,0.6553,0.5523,0.5508,0.5497,0.5487,0,0.4786,0.4876,0.5034,0.5231,0.5309,0.5499,0.5721,0.5844,0.6181,0.6466,0.6579,0.6883,0.7061,0.7153,0.7288,0.7146,0.7135,0.7048,0.6389,0.6287,0.6606,0.6573,0.6846,0.6839,0.6833,0.6829,0.6824,0,0.4829,0.4912,0.5026,0.5108,0.5285,0.5383,0.5638,0.5844,0.6092,0.6272,0.6555,0.6691,0.6876,0.7014,0.6948,0.6929,0.7164,0.6748,0.6728,0.624,0.6167,0.6815,0.6778,0.7116,0.7115,0.7114,0.7113,0,0.4802,0.4893,0.4984,0.5025,0.5157,0.5279,0.5437,0.5673,0.5809,0.619,0.6336,0.6545,0.6712,0.6804,0.6771,0.6706,0.7004,0.6922,0.6676,0.6652,0.624,0.6166,0.7111,0.7111,0.711,0.711,0.7109,0,0.4773,0.4831,0.4913,0.5029,0.5063,0.5161,0.5416,0.5556,0.5819,0.5907,0.6122,0.6194,0.638,0.6265,0.6503,0.6419,0.6427,0.6437,0.6446,0.6211,0.6063,0.5707,0.5783,0.6426,0.6421,0.6416,0.6412,0,0.474,0.4798,0.4828,0.494,0.4979,0.5077,0.5167,0.5301,0.545,0.5652,0.5733,0.5893,0.578,0.5874,0.5982,0.6059,0.6157,0.5984,0.6247,0.6253,0.6006,0.6188,0.5639,0.5736,0.6351,0.6357,0.6362,0,0.4687,0.4737,0.4757,0.4816,0.4903,0.4957,0.5057,0.52,0.5355,0.5395,0.5605,0.5617,0.5683,0.5719,0.572,0.5831,0.6036,0.5809,0.5816,0.5868,0.6396,0.6129,0.6144,0.6117,0.6126,0.6133,0.6313,0,0.4675,0.4714,0.473,0.4806,0.4849,0.4913,0.4983,0.5055,0.5123,0.5192,0.5344,0.5342,0.5461,0.5439,0.5404,0.5619,0.5595,0.5594,0.5567,0.5711,0.5754,0.5792,0.531,0.5308,0.5306,0.5305,0,0,0.4643,0.4691,0.4706,0.4741,0.48,0.4871,0.4921,0.4968,0.5034,0.5107,0.5064,0.5213,0.5184,0.5331,0.5341,0.5315,0.5399,0.5332,0.5603,0.5635,0.5666,0.5718,0.5756,0.5302,0.5302,0.5301,0.5301,0,0.4643,0.4678,0.469,0.473,0.4814,0.4852,0.4882,0.4935,0.4975,0.5036,0.505,0.5105,0.5127,0.5165,0.5188,0.5284,0.5318,0.5287,0.54,0.5582,0.5617,0.5648,0.5705,0.5741,0.5297,0.5297,0.5297,0,0.4638,0.468,0.4687,0.4745,0.4789,0.483,0.4845,0.4899,0.4958,0.4931,0.4993,0.5003,0.5021,0.5068,0.5093,0.5067,0.5259,0.5142,0.5151,0.5196,0.5384,0.5422,0.5456,0.5028,0.5028,0.5027,0,0,0.4642,0.4659,0.4713,0.4749,0.4769,0.4831,0.4862,0.4891,0.4921,0.4935,0.4942,0.4966,0.4999,0.5014,0.502,0.5066,0.5127,0.5111,0.5123,0.5134,0.5184,0.5373,0.5409,0.5024,0.5024,0.5024,0,0,0.4637,0.468,0.4722,0.4741,0.4797,0.4833,0.4856,0.4895,0.492,0.4933,0.4925,0.4924,0.4976,0.4963,0.4926,0.5019,0.4966,0.4973,0.5026,0.5042,0.5054,0.5111,0.4879,0,0,0,0,0,0.4677,0.4676,0.4715,0.473,0.4789,0.4828,0.4836,0.4866,0.4897,0.4904,0.4924,0.4901,0.4941,0.4906,0.4907,0.4963,0.4986,0.4992,0.4999,0.5078,0.5094,0.5108,0,0,0,0,0,0,0.4683,0.4696,0.4716,0.4753,0.4769,0.4826,0.4828,0.4834,0.4894,0.4895,0.4901,0.4899,0.4871,0.4904,0.4905,0.496,0.4878,0.4988,0.4994,0.4999,0.5083,0.5097,0.5109,0,0,0,0,0,0.4688,0.4699,0.4785,0.4753,0.4766,0.4818,0.4826,0.4832,0.4873,0.4866,0.4867,0.4903,0.4871,0.4873,0.4904,0.4961,0.4878,0.4878,0.4992,0.4996,0.5001,0.509,0,0,0,0,0,0,0.4692,0.4686,0.4789,0.4795,0.4752,0.4815,0.4822,0.483,0.4839,0.4844,0.4861,0.4861,0.4871,0.4872,0.4873,0.4964,0.4877,0.4877,0.4878,0.4995,0.4999,0.5002,0,0,0,0,0,0,0.4682,0.469,0.4791,0.4788,0.4794,0.4812,0.4819,0.4824,0.4837,0.483,0.4833,0.4861,0.4869,0.4872,0.4873,0.488,0.4876,0.4877,0.4877,0.4877,0.4998,0.5001,0,0,0,0,0,0,0.4687,0.4694,0.4786,0.479,0.4795,0.486,0.4815,0.4865,0.4864,0.4826,0.4864,0.4864,0.4869,0.487,0.4873,0.4879,0.488,0.4876,0.4877,0.4877,0.4877,0,0,0,0,0,0,0,0.469,0.463,0.4766,0.4792,0.4796,0.4858,0.4859,0.4859,0.4864,0.4864,0.4864,0.4864,0.4874,0.4874,0.4875,0.4879,0,0,0.4876,0.4877,0,0,0,0,0,0,0,0,0.4628,0.4629,0.4766,0.4768,0.477,0.4858,0.4859,0.4859,0.4864,0.4864,0.4864,0.4864,0.4874,0.4875,0.4875,0,0,0,0,0,0,0,0,0,0,0,0,0,0,0,0.4766,0.4768,0,0.4858,0.4859,0.4859,0.4864,0.4864,0.4864,0.4864,0.4874,0.4875,0.4875,0,0,0,0,0,0,0,0,0,0,0,0,0,0,0,0,0,0,0,0,0,0,0,0,0,0,0,0,0,0,0,0,0,0,0,0,0,0,0,0,0,0,0,0,0,0,0,0,0,0,0,0,0,0,0,0,0,0,0,0,0,0,0,0,0,0,0,0,0]}],[{"header":{"parameterUnit":"kt","parameterCategory":2,"dx":1,"dy":1,"la1":30.253999710083008,"la2":30.299108505249023,"lo1":-89.0895004272461,"lo2":-89.04439544677734,"nx":28,"ny":28,"refTime":"2022-10-02T21:00:00:Z","depth":"2","parameterNumber":3,"parameterNumberName":"V-component_of_CURRENTS"},"data":[0.1224,0.1409,0.1497,0.1767,0.1868,0.2121,0.2312,0.2636,0.2858,0.3072,0.3026,0.2884,0.2095,0.1432,0.0705,0.0208,0.0118,0.0099,0.0148,0.0377,0.0394,-0.0122,-0.0004,0,0,0,0,0,0.1166,0.1273,0.1418,0.1592,0.1772,0.1809,0.2115,0.2318,0.269,0.2857,0.3005,0.2461,0.1941,0.1282,0.0366,-0.0178,-0.0196,-0.0356,-0.0245,-0.0234,-0.0226,-0.0159,-0.0324,-0.0325,-0.0326,-0.0327,0,0,0.1068,0.1147,0.1308,0.1445,0.1584,0.1782,0.1927,0.2154,0.2399,0.2655,0.261,0.2604,0.2035,0.1171,0.0607,-0.0022,-0.0012,-0.0239,-0.0231,-0.0223,-0.0161,-0.0152,-0.0323,-0.0324,-0.0324,-0.0325,-0.0325,0,0.1028,0.1084,0.1185,0.1339,0.1453,0.158,0.1747,0.1857,0.201,0.2144,0.2321,0.2314,0.1828,0.139,0.0689,0.0353,0.0035,-0.0088,-0.0034,0.0045,0.0058,0.0002,0.0013,-0.0082,-0.0081,-0.008,-0.008,-0.0079,0.0965,0.1038,0.1176,0.125,0.1306,0.1428,0.1527,0.1601,0.1719,0.1835,0.1923,0.1784,0.1765,0.1228,0.0746,0.0262,0.0214,-0.0051,-0.0058,-0.0003,-0.0064,-0.0051,-0.004,-0.007,-0.0071,-0.0072,-0.0073,0,0.0952,0.1002,0.1111,0.1219,0.1258,0.1337,0.1462,0.1548,0.1585,0.1717,0.1732,0.1659,0.1474,0.116,0.0824,0.0563,0.026,0.0128,0.0196,0.0134,-0.0027,-0.002,-0.0148,-0.0151,-0.0154,-0.0157,-0.0159,0,0.0916,0.0988,0.1067,0.1124,0.1229,0.1268,0.1377,0.1401,0.1455,0.1552,0.1457,0.1497,0.1233,0.1065,0.0798,0.0485,0.0524,0.0229,0.0154,0.0212,0.0209,0.0247,0.0246,0.0272,0.0274,0.0276,0.0277,0,0.0849,0.0944,0.1034,0.1061,0.1138,0.1186,0.1231,0.125,0.1294,0.1318,0.1338,0.1246,0.1215,0.101,0.0741,0.0729,0.0492,0.0434,0.0206,0.0196,0.0173,0.0163,0.0279,0.0279,0.028,0.028,0.0281,0,0.0799,0.0855,0.0956,0.1038,0.1061,0.1098,0.1158,0.1192,0.1191,0.1179,0.1162,0.1091,0.1032,0.0938,0.0727,0.0773,0.0595,0.0467,0.0455,0.0362,0.026,0.0148,0.015,0.0262,0.0263,0.0264,0.0265,0,0.073,0.0817,0.0829,0.0913,0.0964,0.0944,0.098,0.0977,0.0963,0.0981,0.0911,0.0904,0.0801,0.079,0.0735,0.0589,0.052,0.0587,0.0338,0.033,0.0288,0.0302,0.0352,0.017,0.0279,0.0277,0.0276,0,0.0664,0.0723,0.073,0.0773,0.0779,0.0795,0.0822,0.0838,0.0868,0.0811,0.0854,0.0773,0.0726,0.0697,0.0626,0.0581,0.0529,0.0497,0.0491,0.0421,0.0383,0.0324,0.0308,0.0496,0.0497,0.0497,0.0287,0,0.062,0.0658,0.0679,0.0712,0.0717,0.0738,0.0721,0.0717,0.069,0.0663,0.0653,0.0575,0.0543,0.0508,0.0459,0.0461,0.0397,0.0364,0.0334,0.0377,0.0272,0.0264,0.0323,0.0321,0.0319,0.0317,0,0,0.0549,0.06,0.058,0.0611,0.0624,0.0566,0.0607,0.0585,0.0543,0.0546,0.0509,0.0439,0.0378,0.0382,0.0389,0.0343,0.0284,0.0359,0.0352,0.0357,0.0361,0.0264,0.0259,0.0314,0.0313,0.0313,0.0312,0,0.0534,0.054,0.0577,0.0574,0.0561,0.054,0.0546,0.0511,0.0501,0.0488,0.0429,0.0397,0.034,0.0311,0.0288,0.0318,0.0237,0.0293,0.0389,0.0338,0.0345,0.035,0.0258,0.0254,0.0307,0.0308,0.0308,0,0.0494,0.0495,0.0509,0.0511,0.0494,0.051,0.0456,0.0449,0.046,0.0373,0.0375,0.0317,0.0257,0.0246,0.0235,0.0219,0.0194,0.021,0.0218,0.0242,0.0186,0.0195,0.0202,0.011,0.011,0.011,0,0,0.048,0.0503,0.0486,0.0504,0.0506,0.0463,0.0451,0.0427,0.0394,0.038,0.0338,0.0292,0.0257,0.0244,0.0199,0.019,0.0135,0.0192,0.0201,0.0209,0.0238,0.0184,0.0192,0.011,0.011,0.011,0,0,0.0463,0.0465,0.0456,0.0484,0.0464,0.0419,0.042,0.0392,0.036,0.0356,0.0296,0.0284,0.0266,0.0224,0.0226,0.0199,0.0153,0.0151,0.0248,0.0258,0.0267,0.0315,0.0175,0,0,0,0,0,0.0439,0.0468,0.0461,0.0462,0.0442,0.0426,0.0418,0.0383,0.0364,0.0368,0.0327,0.0291,0.0214,0.0215,0.0201,0.0223,0.0105,0.0106,0.0106,0.0226,0.0238,0.0248,0,0,0,0,0,0,0.0439,0.0442,0.0459,0.0421,0.0415,0.0424,0.0387,0.0377,0.0363,0.036,0.0299,0.0289,0.0247,0.0217,0.0206,0.0228,0.0178,0.0105,0.0106,0.0106,0.023,0.024,0.0248,0,0,0,0,0,0.0439,0.0441,0.0432,0.0418,0.0413,0.0371,0.0387,0.0379,0.0366,0.0305,0.0294,0.0344,0.0248,0.0236,0.021,0.0235,0.0185,0.0182,0.0106,0.0106,0.0107,0.0235,0,0,0,0,0,0,0.0438,0.0417,0.0428,0.0423,0.0421,0.0369,0.0365,0.038,0.0311,0.0301,0.0347,0.0344,0.0249,0.0239,0.023,0.0241,0.0191,0.0187,0.0185,0.0106,0.0106,0.0107,0,0,0,0,0,0,0.0415,0.0414,0.0425,0.0431,0.0427,0.0368,0.0364,0.0325,0.031,0.0355,0.0352,0.0346,0.0262,0.0241,0.0234,0.0172,0.0196,0.0192,0.0189,0.0188,0.0106,0.0107,0,0,0,0,0,0,0.0413,0.0411,0.0432,0.0429,0.0424,0.0363,0.0329,0.031,0.0323,0.0358,0.0323,0.0323,0.0264,0.0256,0.0237,0.0178,0.0174,0.0196,0.0193,0.0191,0.019,0,0,0,0,0,0,0,0.0411,0.0443,0.0462,0.0426,0.0422,0.0377,0.0376,0.0374,0.0323,0.0323,0.0323,0.0323,0.0217,0.0213,0.0209,0.0183,0,0,0.0196,0.0194,0,0,0,0,0,0,0,0,0.0441,0.0443,0.0461,0.0461,0.046,0.0377,0.0376,0.0374,0.0323,0.0323,0.0323,0.0323,0.0216,0.0213,0.021,0,0,0,0,0,0,0,0,0,0,0,0,0,0,0,0.0461,0.0461,0,0.0377,0.0376,0.0375,0.0323,0.0323,0.0323,0.0323,0.0215,0.0213,0.021,0,0,0,0,0,0,0,0,0,0,0,0,0,0,0,0,0,0,0,0,0,0,0,0,0,0,0,0,0,0,0,0,0,0,0,0,0,0,0,0,0,0,0,0,0,0,0,0,0,0,0,0,0,0,0,0,0,0,0,0,0,0,0,0,0,0,0,0,0]}]],[[{"header":{"parameterUnit":"kt","parameterCategory":2,"dx":1,"dy":1,"la1":30.253999710083008,"la2":30.299108505249023,"lo1":-89.0895004272461,"lo2":-89.04439544677734,"nx":28,"ny":28,"refTime":"2022-10-02T21:00:00:Z","depth":"4","parameterNumber":2,"parameterNumberName":"U-component_of_CURRENTS"},"data":[0.1391,0.1416,0.1467,0.1422,0.1464,0.1609,0.1796,0.2031,0.2076,0.2396,0.2511,0.2725,0.2939,0.3098,0.3141,0.3189,0.3164,0.3626,0.3617,0.374,0.377,0.3796,0.3634,0,0,0,0,0,0.1515,0.1513,0.1563,0.1642,0.1763,0.1899,0.2162,0.234,0.2652,0.264,0.2833,0.298,0.312,0.3251,0.3231,0.3489,0.3675,0.344,0.3525,0.3759,0.3791,0.3623,0,0,0,0,0,0,0.17,0.1684,0.181,0.1905,0.2032,0.2139,0.229,0.2456,0.2607,0.2987,0.2996,0.3288,0.3542,0.3575,0.3672,0.3721,0.3659,0.3511,0.3555,0.3588,0.3412,0.3236,0.3036,0,0,0,0,0,0.1884,0.1979,0.2031,0.2174,0.2291,0.2408,0.2613,0.2673,0.2988,0.3223,0.3329,0.3462,0.3599,0.3764,0.3862,0.3915,0.4176,0.4066,0.4081,0.3983,0.3893,0.3859,0.3863,0.3915,0.3919,0.3922,0.3924,0,0.2096,0.2129,0.2332,0.2382,0.2485,0.2652,0.276,0.3042,0.3155,0.3471,0.3516,0.3795,0.3959,0.3951,0.416,0.4265,0.4193,0.4152,0.4048,0.3945,0.3904,0.3899,0.3893,0.395,0.3948,0.3946,0.3943,0,0.2204,0.2336,0.2401,0.2613,0.2696,0.2761,0.3023,0.312,0.337,0.3546,0.3665,0.3936,0.4107,0.4306,0.4468,0.4336,0.436,0.4269,0.4494,0.4464,0.395,0.3933,0.3993,0.3983,0.3975,0.3968,0.3963,0,0.2374,0.2427,0.2622,0.266,0.275,0.2921,0.3068,0.321,0.3455,0.3572,0.3853,0.3955,0.4225,0.4354,0.4403,0.4329,0.4526,0.4173,0.4135,0.4353,0.4336,0.4344,0.4324,0.4512,0.4511,0.4511,0.451,0,0.2449,0.2589,0.265,0.27,0.287,0.2965,0.3081,0.3296,0.3398,0.3699,0.3805,0.4047,0.4162,0.4274,0.4337,0.4308,0.4461,0.4417,0.4142,0.412,0.4332,0.4313,0.4509,0.4509,0.4509,0.4508,0.4508,0,0.2554,0.2626,0.2704,0.284,0.2875,0.296,0.3149,0.3252,0.3488,0.3593,0.3787,0.391,0.4092,0.4046,0.421,0.4162,0.4168,0.4178,0.4182,0.3897,0.3788,0.4004,0.416,0.4157,0.4155,0.4152,0.415,0,0.2581,0.2661,0.2739,0.2834,0.288,0.301,0.3103,0.3241,0.3371,0.3525,0.365,0.3791,0.3777,0.3863,0.393,0.3988,0.4042,0.3954,0.4049,0.4051,0.3765,0.3846,0.4015,0.4113,0.4118,0.4121,0.4124,0,0.258,0.271,0.2729,0.2783,0.2916,0.2954,0.3081,0.3201,0.3299,0.3423,0.3559,0.3656,0.3728,0.3765,0.3791,0.3857,0.398,0.3838,0.384,0.3861,0.4138,0.3837,0.3829,0.3992,0.3996,0.4,0.4098,0,0.263,0.2698,0.2725,0.2822,0.2884,0.2941,0.3028,0.3123,0.3207,0.3274,0.3425,0.3477,0.3587,0.36,0.3598,0.3737,0.3715,0.3695,0.3661,0.3759,0.3783,0.3803,0.3543,0.3542,0.3541,0.354,0,0,0.2616,0.2662,0.2726,0.2778,0.2826,0.2908,0.2956,0.3023,0.3123,0.3188,0.3196,0.3361,0.3389,0.3498,0.3533,0.3534,0.3565,0.3547,0.3699,0.3716,0.3733,0.3761,0.3782,0.3538,0.3537,0.3537,0.3536,0,0.2602,0.2669,0.2708,0.2761,0.2849,0.2882,0.2916,0.299,0.3052,0.3145,0.3175,0.3262,0.3337,0.3381,0.3407,0.3507,0.3512,0.3523,0.3606,0.3685,0.3704,0.3721,0.3753,0.3772,0.3533,0.3534,0.3534,0,0.2596,0.2639,0.2666,0.2736,0.2786,0.2833,0.2853,0.2927,0.2984,0.3001,0.3114,0.3154,0.3191,0.3273,0.3319,0.3298,0.3463,0.34,0.3407,0.3433,0.3513,0.3535,0.3554,0.3306,0.3305,0.3304,0,0,0.2595,0.2643,0.2689,0.2732,0.2762,0.2823,0.2863,0.2906,0.2961,0.3001,0.3053,0.3113,0.3163,0.3207,0.3247,0.3322,0.3343,0.3372,0.3383,0.3392,0.3422,0.3504,0.3525,0.3301,0.3301,0.3301,0,0,0.2579,0.2635,0.2674,0.2714,0.2768,0.2802,0.2851,0.2891,0.2971,0.3003,0.3027,0.3042,0.3139,0.315,0.3111,0.3247,0.3202,0.3211,0.3243,0.3256,0.3267,0.3292,0.3091,0,0,0,0,0,0.2598,0.2622,0.2656,0.267,0.2743,0.2784,0.2798,0.2857,0.2896,0.2937,0.2995,0.2996,0.3135,0.31,0.3112,0.3173,0.3265,0.3272,0.3278,0.3336,0.335,0.3362,0,0,0,0,0,0,0.2603,0.2615,0.2655,0.2684,0.2702,0.2782,0.2795,0.2812,0.2893,0.2904,0.2984,0.2995,0.3001,0.3094,0.3105,0.3163,0.3087,0.3268,0.3273,0.3278,0.3341,0.3352,0.3362,0,0,0,0,0,0.2607,0.2617,0.2721,0.2685,0.2701,0.2779,0.2797,0.2811,0.2893,0.2917,0.2934,0.2944,0.2999,0.3013,0.3101,0.3159,0.308,0.3084,0.3271,0.3276,0.328,0.3346,0,0,0,0,0,0,0.261,0.2633,0.2726,0.2733,0.2695,0.2779,0.2793,0.281,0.2904,0.2919,0.287,0.2876,0.2997,0.3008,0.3019,0.3158,0.3074,0.3078,0.3081,0.3275,0.3278,0.3281,0,0,0,0,0,0,0.2628,0.2639,0.2729,0.2738,0.2747,0.2778,0.2791,0.2827,0.2904,0.2853,0.286,0.2872,0.2984,0.3005,0.3014,0.3067,0.307,0.3073,0.3076,0.3078,0.3277,0.328,0,0,0,0,0,0,0.2634,0.2643,0.2736,0.2743,0.2751,0.2839,0.2812,0.2888,0.2903,0.2848,0.2907,0.2909,0.298,0.299,0.3009,0.3058,0.3064,0.307,0.3072,0.3074,0.3075,0,0,0,0,0,0,0,0.2639,0.2561,0.2681,0.2748,0.2755,0.28,0.2803,0.2805,0.2904,0.2905,0.2907,0.2908,0.3048,0.3052,0.3056,0.3052,0,0,0.3069,0.3071,0,0,0,0,0,0,0,0,0.2559,0.256,0.2681,0.2683,0.2684,0.2801,0.2802,0.2804,0.2904,0.2905,0.2906,0.2908,0.3049,0.3052,0.3056,0,0,0,0,0,0,0,0,0,0,0,0,0,0,0,0.2682,0.2683,0,0.2801,0.2802,0.2804,0.2904,0.2905,0.2906,0.2907,0.305,0.3053,0.3056,0,0,0,0,0,0,0,0,0,0,0,0,0,0,0,0,0,0,0,0,0,0,0,0,0,0,0,0,0,0,0,0,0,0,0,0,0,0,0,0,0,0,0,0,0,0,0,0,0,0,0,0,0,0,0,0,0,0,0,0,0,0,0,0,0,0,0,0,0]}],[{"header":{"parameterUnit":"kt","parameterCategory":2,"dx":1,"dy":1,"la1":30.253999710083008,"la2":30.299108505249023,"lo1":-89.0895004272461,"lo2":-89.04439544677734,"nx":28,"ny":28,"refTime":"2022-10-02T21:00:00:Z","depth":"4","parameterNumber":3,"parameterNumberName":"V-component_of_CURRENTS"},"data":[0.0936,0.1059,0.1109,0.1321,0.1434,0.1617,0.1703,0.1714,0.1696,0.1655,0.1427,0.1308,0.0875,0.1113,0.0444,0.035,0.0202,-0.0249,-0.0256,-0.0464,-0.0461,-0.0458,-0.031,0,0,0,0,0,0.0892,0.0965,0.1105,0.1248,0.1406,0.1498,0.1626,0.1659,0.1668,0.1656,0.1605,0.138,0.0938,0.0728,0.0446,0.0305,-0.0086,-0.0039,-0.0208,-0.0462,-0.0458,-0.0315,0,0,0,0,0,0,0.0826,0.0894,0.1002,0.1133,0.1288,0.1434,0.1486,0.156,0.161,0.1562,0.1541,0.1251,0.1073,0.0627,0.0343,0.0053,-0.0017,-0.0113,-0.0128,-0.0128,0.0036,0.0153,0.0067,0,0,0,0,0,0.0751,0.0795,0.0874,0.1026,0.1142,0.1281,0.14,0.1445,0.1486,0.1461,0.1398,0.117,0.0915,0.0555,0.0232,-0.0043,-0.0292,-0.038,-0.038,-0.0332,-0.0279,-0.0311,-0.0294,-0.0445,-0.0444,-0.0444,-0.0444,0,0.067,0.0717,0.0841,0.0919,0.0977,0.1084,0.1169,0.1199,0.1267,0.1243,0.1274,0.1078,0.0949,0.0516,0.0222,-0.0182,-0.0217,-0.037,-0.0317,-0.0271,-0.0308,-0.0291,-0.0276,-0.0441,-0.0441,-0.0441,-0.0442,0,0.0639,0.0671,0.0766,0.0847,0.0877,0.0948,0.1071,0.1122,0.1093,0.1146,0.1137,0.0978,0.0765,0.0509,0.0196,0.0045,-0.0192,-0.0267,-0.0143,-0.0187,-0.0279,-0.0264,-0.0436,-0.0437,-0.0438,-0.0439,-0.044,0,0.0613,0.0665,0.0728,0.0772,0.0854,0.0872,0.0952,0.0942,0.0949,0.0999,0.0867,0.0858,0.0612,0.0453,0.0265,0.0038,0.0008,-0.0108,-0.0163,-0.0061,-0.0049,-0.0119,-0.0112,-0.0165,-0.0163,-0.0162,-0.016,0,0.058,0.065,0.0712,0.0734,0.0794,0.0828,0.0861,0.0846,0.0884,0.0811,0.0805,0.068,0.0636,0.0455,0.0278,0.0286,0.0028,0.0003,-0.0108,-0.011,-0.0107,-0.0102,-0.0158,-0.0158,-0.0158,-0.0157,-0.0156,0,0.0565,0.0605,0.0675,0.0735,0.075,0.0784,0.0801,0.0823,0.0781,0.0755,0.0708,0.0649,0.0577,0.0543,0.0335,0.0394,0.0262,0.0161,0.015,0.0125,0.008,0.0017,-0.0004,-0.0001,0.0001,0.0003,0.0005,0,0.0529,0.059,0.0608,0.0669,0.0701,0.0694,0.0718,0.0711,0.0688,0.0665,0.0611,0.0588,0.0557,0.0537,0.0473,0.0345,0.0273,0.0371,0.0097,0.0088,0.0111,0.0093,0.0256,0.0035,0.0031,0.0028,0.0026,0,0.0492,0.0544,0.0549,0.0579,0.0593,0.0603,0.0626,0.0627,0.0629,0.0602,0.0592,0.0563,0.0518,0.0494,0.0451,0.0391,0.031,0.0332,0.0325,0.0251,0.0105,0.0125,0.0108,0.0267,0.0265,0.0263,0.0047,0,0.0476,0.0504,0.0519,0.0545,0.0552,0.0566,0.0561,0.0559,0.0547,0.0526,0.0505,0.0457,0.0417,0.0408,0.0385,0.0349,0.0301,0.0274,0.0242,0.0254,0.0157,0.0141,0.0304,0.0302,0.03,0.0299,0,0,0.043,0.0463,0.0452,0.0474,0.0485,0.0451,0.0478,0.0469,0.0445,0.0438,0.0429,0.0367,0.0338,0.0321,0.0337,0.0311,0.0241,0.0315,0.0258,0.0254,0.025,0.0158,0.0144,0.0297,0.0296,0.0296,0.0295,0,0.0419,0.0425,0.045,0.0449,0.0444,0.0431,0.0437,0.0416,0.0414,0.0409,0.0372,0.0348,0.0315,0.0291,0.0274,0.0293,0.0215,0.0284,0.0335,0.0249,0.0247,0.0244,0.0155,0.0143,0.0292,0.0292,0.0292,0,0.0392,0.0393,0.0404,0.0404,0.0393,0.0406,0.0371,0.037,0.0382,0.0323,0.0334,0.0295,0.0252,0.0247,0.0241,0.0227,0.0181,0.0222,0.0228,0.0228,0.0135,0.0134,0.0133,0.0147,0.0147,0.0147,0,0,0.0381,0.0399,0.0386,0.0399,0.04,0.0373,0.0367,0.0355,0.0335,0.0328,0.0304,0.0275,0.0252,0.0244,0.0214,0.0205,0.0138,0.0209,0.0215,0.0221,0.0225,0.0135,0.0134,0.0147,0.0147,0.0147,0,0,0.037,0.0372,0.0367,0.0386,0.0373,0.0342,0.0347,0.0331,0.0313,0.0315,0.0277,0.0269,0.0262,0.023,0.0232,0.0216,0.0181,0.018,0.0254,0.0262,0.0268,0.0283,0.0201,0,0,0,0,0,0.0352,0.0373,0.0368,0.0369,0.0356,0.0344,0.0338,0.0324,0.0317,0.0321,0.0298,0.0276,0.0225,0.0227,0.0217,0.0236,0.0145,0.0145,0.0146,0.0237,0.0246,0.0253,0,0,0,0,0,0,0.0353,0.0354,0.0367,0.0341,0.0337,0.0343,0.0325,0.032,0.0317,0.0317,0.028,0.0274,0.0248,0.0229,0.0221,0.0241,0.0204,0.0145,0.0145,0.0146,0.024,0.0247,0.0253,0,0,0,0,0,0.0353,0.0354,0.0346,0.0339,0.0336,0.0317,0.0326,0.0322,0.0318,0.028,0.0274,0.0311,0.0248,0.024,0.0224,0.0246,0.0209,0.0207,0.0145,0.0146,0.0146,0.0244,0,0,0,0,0,0,0.0353,0.0337,0.0344,0.0341,0.0347,0.0316,0.0314,0.0323,0.0281,0.0276,0.0308,0.0308,0.0247,0.0241,0.0235,0.025,0.0214,0.0211,0.0209,0.0146,0.0146,0.0146,0,0,0,0,0,0,0.0336,0.0335,0.0342,0.0354,0.0352,0.0316,0.0315,0.0283,0.028,0.0311,0.031,0.0309,0.0258,0.0242,0.0238,0.0187,0.0217,0.0214,0.0212,0.0211,0.0146,0.0146,0,0,0,0,0,0,0.0335,0.0334,0.0354,0.0352,0.0351,0.0314,0.0286,0.0273,0.0294,0.0313,0.0296,0.0297,0.0259,0.0254,0.0239,0.0191,0.0188,0.0217,0.0215,0.0214,0.0213,0,0,0,0,0,0,0,0.0333,0.0354,0.0365,0.0352,0.035,0.0315,0.0314,0.0312,0.0294,0.0295,0.0296,0.0296,0.0233,0.023,0.0227,0.0194,0,0,0.0217,0.0216,0,0,0,0,0,0,0,0,0.0353,0.0354,0.0365,0.0365,0.0364,0.0315,0.0314,0.0313,0.0295,0.0295,0.0296,0.0296,0.0233,0.023,0.0227,0,0,0,0,0,0,0,0,0,0,0,0,0,0,0,0.0365,0.0365,0,0.0314,0.0314,0.0313,0.0295,0.0295,0.0296,0.0296,0.0232,0.023,0.0228,0,0,0,0,0,0,0,0,0,0,0,0,0,0,0,0,0,0,0,0,0,0,0,0,0,0,0,0,0,0,0,0,0,0,0,0,0,0,0,0,0,0,0,0,0,0,0,0,0,0,0,0,0,0,0,0,0,0,0,0,0,0,0,0,0,0,0,0,0]}]]]